Regional Weather Roundup
Issued by NWS

Home | Current Version | Previous Version | Text Only | Print | Product List | Glossary Off
Versions: 1 2 3 4 5 6 7 8 9 10 11 12 13 14 15 16 17 18 19 20 21 22 23 24 25 26 27 28 29 30 31 32 33 34 35 36 37 38 39 40 41 42 43 44 45 46 47 48 49 50

000
ASUS45 KBOU 250607
RWRCO

WEATHER ROUNDUP FOR COLORADO
NATIONAL WEATHER SERVICE DENVER/BOULDER CO
1200 AM MDT SUN JUN 25 2017

NOTE: "FAIR" INDICATES FEW OR NO CLOUDS BELOW 12000 FEET WITH NO
SIGNIFICANT WEATHER AND/OR OBSTRUCTIONS TO VISIBILITY.

COZ001>005-013-030-031-250700-
...NORTHWEST COLORADO...

CITY           SKY/WX    TMP DP  RH WIND       PRES   REMARKS
CRAIG          FAIR      50  39  66 SE5       30.31S
HAYDEN         FAIR      55  27  33 SE9       30.33S
MEEKER         FAIR      53  33  46 E7        30.31R
RABBIT EARS PA FAIR      45  32  61 NE7       30.59S
STEAMBOAT SPGS FAIR      53  32  44 NW6       30.36S
WALDEN         FAIR      50  37  62 SE3       30.46S
$$

COZ006>008-011-250700-
...WEST CENTRAL VALLEYS...

CITY           SKY/WX    TMP DP  RH WIND       PRES   REMARKS
GRAND JUNCTION FAIR      78  26  14 SW5       30.14R
MONTROSE       FAIR      64  34  32 SE6       30.23R
EAGLE          FAIR      58  28  32 E5        30.36R
RIFLE          FAIR      62  29  28 E9        30.24R
DELTA          FAIR      73  24  16 NE12      30.18S
NUCLA          NOT AVBL
$$

COZ017>023-064>068-250700-
...SOUTHWEST COLORADO...

CITY           SKY/WX    TMP DP  RH WIND       PRES   REMARKS
DURANGO        FAIR      59  20  22 CALM      30.24R
CORTEZ         FAIR      56  25  30 E10       30.20R
PAGOSA SPRINGS FAIR      57  22  25 W3        30.33R
TELLURIDE      FAIR      56  23  27 E3        30.48S
WOLF CREEK PAS FAIR      48  23  37 N10       30.72R
$$

COZ009-010-012-014-032>034-037-058>063-250700-
...CENTRAL COLORADO...

CITY           SKY/WX    TMP DP  RH WIND       PRES   REMARKS
ASPEN          FAIR      50  29  44 SW9       30.40R
BUENA VISTA    MOCLDY    57  44  62 E3        30.48S
COPPER MTN     FAIR      46  19  34 CALM      30.69S
BERTHOUD PASS  HAZE      34  23  64 SE14G21   30.72S VSB<1/4 WCI  24
COTTONWOOD PAS MOCLDY    54  45  71 E7        30.58F
GUNNISON       FAIR      61  38  42 VRB5      30.39R
KREMMLING      NOT AVBL
LEADVILLE      FAIR      43  37  79 CALM      30.56R
MONARCH PASS   FOG       41  41 100 E24       30.76S VSB<1/4
SALIDA         MOCLDY    60  46  59 CALM      30.53R
SUNLIGHT       FAIR      46  19  34 NE3       30.63S
WILKERSON PASS FOG       41  39  93 SE6       30.69S VSB 3/4
$$

COZ069>075-250700-
...SAN LUIS VALLEY/SANGRE DE CRISTO MOUNTAINS...

CITY           SKY/WX    TMP DP  RH WIND       PRES   REMARKS
ALAMOSA        FAIR      57  45  64 SE8       30.37R
DEL NORTE      FAIR      57  41  56 E3        30.41R
LA VETA PASS   MOCLDY    45  41  87 NE13      30.70S
SAGUACHE       FAIR      59  43  55 CALM      30.41R
$$

COZ035-036-038>040-250700-
...NORTHERN COLORADO FRONT RANGE...

CITY           SKY/WX    TMP DP  RH WIND       PRES   REMARKS
DENVER INTL AP CLOUDY    60  48  64 E16       30.36R
DMNS CITY PARK   N/A     61  48  62 E3G13     30.37S
AURORA         PTCLDY    57  49  73 NE9       30.37R
FRONT RANGE AP MOCLDY    61  50  67 E14       30.37S
ERIE MUNI ARPT CLOUDY    65  47  52 CALM      30.37R
BOULDER MUN AP LGT RAIN  63  48  59 NE5       30.37F
CENTENNIAL     FAIR      58  48  69 N7        30.38R
BROOMFIELD     MOCLDY    63  46  55 NE6       30.39S
FORT COLLINS   CLOUDY    64  48  56 S6        30.37S
LONGMONT       CLOUDY    67  49  51 CALM      30.39R
$$

COZ041-046-047-076>085-087-088-250700-
...PIKES PEAK/PALMER DIVIDE AND SOUTHERN FOOTHILLS...

CITY           SKY/WX    TMP DP  RH WIND       PRES   REMARKS
COLO. SPRINGS  MOCLDY    62  46  55 SE5       30.41R
A. F. ACADEMY  CLOUDY    63  45  51 SE8       30.42R
SCHRIEVER AFB  MOCLDY    60  46  60 E5        30.41S
CHEYENNE MTN   MOCLDY    59  45  58 S9        30.38S
ELLICOTT       CLOUDY     1 N/A N/A SE10      30.39R WCI -15
FALCON           N/A     57  44  61 SE5       30.45S
FORT CARSON    MOCLDY    64  47  52 SE3       30.37S
LIMON          CLOUDY    56  46  69 CALM      30.37R
MONUMENT HILL  CLOUDY    55  45  67 SW7       30.46R
CANON CITY     CLOUDY    68  54  60 NE5       30.35S
WALSENBURG     FAIR      59  50  72 N8        30.37S
TRINIDAD       FAIR      65  50  58 W12       30.34S
$$

COZ042>045-048>051-090-091-250700-
...NORTHEAST COLORADO...

CITY           SKY/WX    TMP DP  RH WIND       PRES   REMARKS
GREELEY ARPT   FAIR      63  50  62 E9        30.35S
AKRON          MOCLDY    59  47  64 SE10      30.37R
BURLINGTON     CLOUDY    59  50  72 E8        30.34R
WRAY           MOCLDY    59  48  67 S6        30.34R
YUMA           FAIR      55  46  71 SE8       30.35S
STERLING       FAIR      59  50  72 S5        30.31F
HOLYOKE        NOT AVBL
FORT MORGAN    CLOUDY    61  48  62 SE7       30.35S
$$

COZ086-089-092>099-250700-
...SOUTHEAST COLORADO...

CITY           SKY/WX    TMP DP  RH WIND       PRES   REMARKS
PUEBLO         CLOUDY    69  51  52 E7        30.31R
LA JUNTA       FAIR      65  53  65 SE8       30.29R
LAMAR          FAIR      66  53  63 S9        30.26R
SPRINGFIELD      N/A     61  55  81 S6        30.32R
$$



USA.gov is the U.S. government's official web portal to all federal, state and local government web resources and services.